Regional Weather Roundup
Issued by NWS

Home | Current Version | Previous Version | Graphics & Text | Print | Product List | Glossary On
Versions: 1 2 3 4 5 6 7 8 9 10 11 12 13 14 15 16 17 18 19 20 21 22 23 24 25 26 27 28 29 30 31 32 33 34 35 36 37 38 39 40 41 42 43 44 45 46 47 48 49 50
218
ASUS45 KSLC 252210
RWRUT

UTAH REGIONAL WEATHER ROUNDUP
NATIONAL WEATHER SERVICE SALT LAKE CITY UT
400 PM MDT WED MAY 25 2016

UTZ001>011-023>025-252300-

NORTHERN UTAH

CITY           SKY/WX    TMP DP  RH WIND       PRES   REMARKS
BRIGHAM CITY     N/A     64  37  36 S6        30.01F
DUGWAY         PTSUNNY   70  34  26 W8        29.99F
HILL AFB       PTSUNNY   60  41  48 S6        30.01F
LOGAN          MOSUNNY   61  45  55 N13       30.02F
OGDEN          MOSUNNY   64  39  39 VRB7      30.00F
PROVO AIRPORT  PTSUNNY   66  41  39 NW12G23   29.99F
SALT LAKE CITY PTSUNNY   66  34  30 CALM      30.00S
VERNAL         MOSUNNY   67  29  24 VRB6      29.98F
WENDOVER       MOSUNNY   64  36  34 E8        30.01S
HEBER CITY     PTSUNNY   63  28  27 SW18G25   29.99F
WEST JORDAN    CLOUDY    57  39  51 S13G21    30.03R

$$

UTZ012>022-026-027-252300-

SOUTHERN/CENTRAL UTAH

CITY           SKY/WX    TMP DP  RH WIND       PRES   REMARKS
BLANDING       SUNNY     70  15  12 SE7       30.11F
BRYCE CANYON   SUNNY     60   4  10 S17G25    30.09F
CEDAR CITY     MOSUNNY   71  11  10 SW16G25   29.98F
DELTA          MOSUNNY   70  28  21 W12       29.97F
HANKSVILLE     SUNNY     77  14   9 CALM      29.96F
MILFORD        SUNNY     72  18  13 MISG      29.94F
MOAB/CYNLANDS  SUNNY     76  14   9 SW14G23   29.94F
PRICE          CLOUDY    65  22  19 VRB3      30.01F
ST GEORGE      MOCLDY    79  21  11 W8G21     29.92F
KANAB          SUNNY     73  18  12 SW9       30.02F

$$

REGIONAL REPORTS     COLORADO/ARIZONA

CITY           SKY/WX    TMP DP  RH WIND       PRES   REMARKS
CRAIG, CO      MOSUNNY   65  23  20 W20G26    30.01F
GRAND JUNCTION SUNNY     73  18  12 VRB3      29.96F
RIFLE          SUNNY     71  22  15 W17G23    29.98F
MONTROSE       SUNNY     74   8   8 SW18G29   30.01F
CORTEZ         SUNNY     72  13  10 SW8       30.04F
PAGE, AZ       SUNNY     78  13   8 E6        29.94F
GRAND CANYON   MOSUNNY   67  18  15 S9G22     30.07F
KINGMAN        SUNNY     77  19  11 SW26G36   29.95F
FLAGSTAFF      SUNNY     61  13  15 SW22G30   30.10F

$$

REGIONAL REPORTS    NEVADA/IDAHO/WYOMING

CITY           SKY/WX    TMP DP  RH WIND       PRES   REMARKS
LAS VEGAS, NV  MOSUNNY   79  27  14 NE6       29.84F
ELY            PTSUNNY   54  34  46 S16       30.05F
ELKO           CLOUDY    59  43  55 N12       30.06S
POCATELLO, ID  PTSUNNY   63  37  38 W16       30.01S
BURLEY         MOSUNNY   62  42  47 SW10G17   30.00F
EVANSTON, WY   CLOUDY    53  36  52 SW10G28   30.08S
ROCK SPRINGS   CLOUDY    47  36  65 S22       30.06F
KEMMERER         N/A     54  34  47 SW15      30.08F

$$




USA.gov is the U.S. government's official web portal to all federal, state and local government web resources and services.